Date String (YYYY-MM-DD hh:mm:ss) UTC,Instrument flags,Ambient pressure (hPa),Sample flow (lpm),Bypass flow (lpm),Sample temperature (°C),Ambient temperature (°C),ASC tube jacket temperature (°C),LED temperature (°C),Box temperature (°C),Sample RH (%),Mass concentration (μg/m³),Mass concentration (μg/m³)
DateTimeUTC,F1_M11,P_M11,Q1_M11,Q2_M11,T1_M11,T2_M11,T3_M11,T4_M11,T5_M11,U1_M11,X0_M11,X2_M11
2021-08-18 08:00:00,,0822.3,5.00,0.00,29.5,27.8,00.0,38.6,31.2,20.6,0027.42,0017.20
2021-08-18 08:01:00,,0822.4,5.00,0.00,29.5,28.0,00.0,38.6,31.3,21.8,0027.09,0017.17
2021-08-18 08:02:00,,0822.3,5.01,0.00,29.5,28.1,00.0,38.6,31.3,22.0,0026.57,0017.13
2021-08-18 08:03:00,,0822.3,5.00,0.00,29.5,28.2,00.0,38.7,31.4,21.9,0026.49,0017.01
2021-08-18 08:04:00,,0822.3,5.00,0.00,29.5,28.3,00.0,38.7,31.4,21.8,0026.29,0016.92
2021-08-18 08:05:00,,0822.3,4.99,0.00,29.6,28.4,00.0,38.7,31.4,21.5,0025.82,0016.85
2021-08-18 08:06:00,,0822.3,4.99,0.00,29.6,28.5,00.0,38.7,31.4,21.2,0025.64,0016.83
2021-08-18 08:07:00,,0822.4,5.01,0.00,29.6,28.5,00.0,38.7,31.5,21.4,0025.24,0016.83
2021-08-18 08:08:00,,0822.4,4.99,0.00,29.6,28.6,00.0,38.7,31.5,21.6,0024.95,0016.84
2021-08-18 08:09:00,,0822.5,5.01,0.00,29.7,28.6,00.0,38.7,31.5,22.2,0024.45,0016.83
2021-08-18 08:10:00,,0822.4,4.99,0.00,29.7,28.6,00.0,38.7,31.5,22.3,0024.34,0016.78
2021-08-18 08:11:00,,0822.4,5.00,0.00,29.7,28.7,00.0,38.7,31.5,22.4,0024.12,0016.68
2021-08-18 08:12:00,,0822.4,5.00,0.00,29.7,28.7,00.0,38.7,31.5,22.0,0024.72,0016.56
2021-08-18 08:13:00,,0822.5,4.99,0.00,29.7,28.7,00.0,38.8,31.5,22.1,0024.53,0016.49
2021-08-18 08:14:00,,0822.6,5.01,0.00,29.7,28.7,00.0,38.8,31.5,21.8,0024.46,0016.42
2021-08-18 08:15:00,,0822.6,4.99,0.00,29.7,28.7,00.0,38.8,31.5,21.6,0024.48,0016.40
2021-08-18 08:16:00,,0822.6,5.01,0.00,29.7,28.8,00.0,38.8,31.5,21.6,0024.11,0016.36
2021-08-18 08:17:00,,0822.5,4.99,0.00,29.7,28.8,00.0,38.8,31.5,21.6,0024.40,0016.30
2021-08-18 08:18:00,,0822.6,5.01,0.00,29.7,28.8,00.0,38.8,31.5,21.4,0024.68,0016.27
2021-08-18 08:19:00,,0822.6,4.99,0.00,29.7,28.8,00.0,38.8,31.5,21.1,0024.52,0016.23
2021-08-18 08:20:00,,0822.6,5.01,0.00,29.7,28.9,00.0,38.8,31.5,21.0,0024.68,0016.23
2021-08-18 08:21:00,,0822.6,4.98,0.00,29.7,28.2,00.0,38.8,31.4,21.0,0024.75,0016.27
2021-08-18 08:22:00,,0822.6,5.00,0.00,29.6,26.3,00.0,38.8,30.9,21.0,0025.24,0016.32
2021-08-18 08:23:00,,0822.6,5.00,0.00,29.5,26.1,00.0,38.8,30.8,21.1,0024.42,0016.36
2021-08-18 08:24:00,,0822.6,5.01,0.00,29.4,26.4,00.0,38.7,30.9,21.0,0024.23,0016.33
2021-08-18 08:25:00,,0822.6,5.00,0.00,29.4,26.8,00.0,38.7,30.9,21.0,0024.49,0016.37
2021-08-18 08:26:00,,0822.6,5.00,0.00,29.4,27.2,00.0,38.6,31.0,20.9,0024.24,0016.41
2021-08-18 08:27:00,,0822.6,5.01,0.00,29.4,27.5,00.0,38.6,31.1,21.1,0024.28,0016.40
2021-08-18 08:28:00,,0822.5,5.00,0.00,29.4,27.7,00.0,38.6,31.1,20.9,0023.90,0016.41
2021-08-18 08:29:00,,0822.5,4.99,0.00,29.4,27.9,00.0,38.6,31.2,20.2,0023.59,0016.37
2021-08-18 08:30:00,,0822.4,5.00,0.00,29.4,28.0,00.0,38.6,31.2,20.0,0023.93,0016.33
2021-08-18 08:31:00,,0822.4,5.01,0.00,29.4,28.2,00.0,38.6,31.3,20.1,0024.20,0016.30
2021-08-18 08:32:00,,0822.4,4.99,0.00,29.5,28.3,00.0,38.6,31.3,20.3,0024.47,0016.28
2021-08-18 08:33:00,,0822.4,5.00,0.00,29.5,28.4,00.0,38.6,31.3,20.5,0024.32,0016.26
2021-08-18 08:34:00,,0822.4,5.01,0.00,29.5,28.4,00.0,38.6,31.4,20.6,0024.39,0016.23
2021-08-18 08:35:00,,0822.4,5.00,0.00,29.5,28.5,00.0,38.6,31.4,20.4,0024.30,0016.26
2021-08-18 08:36:00,,0822.4,4.99,0.00,29.6,28.6,00.0,38.7,31.4,20.3,0023.73,0016.26
2021-08-18 08:37:00,,0822.4,5.01,0.00,29.6,28.6,00.0,38.7,31.5,20.5,0024.26,0016.25
2021-08-18 08:38:00,,0822.4,5.01,0.00,29.6,28.7,00.0,38.7,31.5,20.6,0024.82,0016.24
2021-08-18 08:39:00,,0822.4,4.98,0.00,29.7,28.8,00.0,38.7,31.5,20.8,0024.86,0016.25
2021-08-18 08:40:00,,0822.4,5.00,0.00,29.7,28.8,00.0,38.7,31.6,20.8,0024.84,0016.28
2021-08-18 08:41:00,,0822.4,5.00,0.00,29.7,28.9,00.0,38.7,31.6,20.7,0025.15,0016.33
2021-08-18 08:42:00,,0822.4,4.99,0.00,29.8,28.9,00.0,38.8,31.6,20.4,0024.50,0016.38
2021-08-18 08:43:00,,0822.4,5.00,0.00,29.8,29.0,00.0,38.8,31.7,20.4,0024.08,0016.37
2021-08-18 08:44:00,,0822.5,5.00,0.00,29.8,29.0,00.0,38.8,31.7,20.3,0024.35,0016.43
2021-08-18 08:45:00,,0822.5,5.00,0.00,29.9,29.0,00.0,38.8,31.7,20.1,0024.43,0016.47
2021-08-18 08:46:00,,0822.6,5.01,0.00,29.9,29.0,00.0,38.8,31.7,20.2,0024.59,0016.46
2021-08-18 08:47:00,,0822.6,5.00,0.00,29.9,29.1,00.0,38.9,31.8,20.5,0024.69,0016.48
2021-08-18 08:48:00,,0822.6,5.00,0.00,29.9,29.1,00.0,38.9,31.8,20.3,0024.35,0016.52
2021-08-18 08:49:00,,0822.5,5.00,0.00,29.9,27.8,00.0,38.9,31.5,20.1,0023.65,0016.52
2021-08-18 08:50:00,,0822.4,5.00,0.00,29.7,26.3,00.0,38.9,31.0,20.2,0023.12,0016.51
2021-08-18 08:51:00,,0822.4,4.99,0.00,29.6,26.3,00.0,38.8,31.0,20.3,0022.88,0016.45
2021-08-18 08:52:00,,0822.4,5.01,0.00,29.6,26.7,00.0,38.8,31.0,20.3,0022.23,0016.46
2021-08-18 08:53:00,,0822.4,5.00,0.00,29.5,27.1,00.0,38.8,31.1,20.1,0022.19,0016.46
2021-08-18 08:54:00,,0822.4,5.01,0.00,29.5,27.4,00.0,38.7,31.2,20.2,0022.61,0016.46
2021-08-18 08:55:00,,0822.4,4.99,0.00,29.5,27.7,00.0,38.7,31.2,20.1,0022.94,0016.49
2021-08-18 08:56:00,,0822.4,4.99,0.00,29.5,27.9,00.0,38.7,31.3,20.0,0022.70,0016.47
2021-08-18 08:57:00,,0822.4,4.99,0.00,29.6,28.0,00.0,38.7,31.3,19.9,0022.60,0016.52
2021-08-18 08:58:00,,0822.4,5.02,0.00,29.6,28.2,00.0,38.7,31.4,19.9,0022.43,0016.53
2021-08-18 08:59:00,,0822.4,4.99,0.00,29.6,28.3,00.0,38.7,31.4,19.8,0022.00,0016.48
